Eastsound, WA
on Wednesday, February 20, 2013

Wednesday
Previous Day Next Day
Daily Summary
 ActualAverage (KBLI)Record (KBLI)
Temperature
Mean Temperature °F 41°F  
Max Temperature 44°F 49°F 61°F (1995)
Min Temperature 32°F 33°F 15°F (1986)
Degree Days
Heating Degree Days 27 24  
Month to date heating degree days 491  
Cooling Degree Days 0 0  
Month to date cooling degree days 0  
Year to date cooling degree days 0  
Moisture
Dew Point 37°F   
Average Humidity 91    
Maximum Humidity 100    
Minimum Humidity 81    
Precipitation
Precipitation 0.02 in 0.11 in 1.31 in (1984)
Month to date precipitation 2.20  
Year to date precipitation 6.87  
Wind
Wind Speed 3 mph   
Max Wind Speed 9 mph   
Max Gust Speed mph   
Visibility 9 miles   
Events Rain   

Key: T is trace of precipitation, MM is missing value
Source: NWS Daily Summary
Time(PST)TemperatureDew PointHumidity Pressure Visibility Wind DirectionWind SpeedGust SpeedPrecipitationEvents Conditions
12:15 AM 35.6°F 33.8°F 93% 29.98 in 10.0 miles Calm Calm - N/A   Clear
12:35 AM 35.6°F 33.8°F 93% 29.98 in 10.0 miles Calm Calm - N/A   Clear
12:55 AM 33.8°F 33.8°F 100% 29.98 in 10.0 miles Calm Calm - N/A   Clear
1:15 AM 33.8°F 33.8°F 100% 29.98 in 10.0 miles North - - N/A   Clear
1:35 AM 33.8°F 32.0°F 93% 29.99 in 10.0 miles Calm Calm - N/A   Clear
1:55 AM 33.8°F 33.8°F 100% 29.99 in 10.0 miles Calm Calm - N/A   Mostly Cloudy
2:15 AM 33.8°F 33.8°F 100% 30.00 in 10.0 miles North - - N/A   Mostly Cloudy
2:35 AM 33.8°F 32.0°F 93% 30.00 in 10.0 miles Calm Calm - N/A   Scattered Clouds
2:55 AM 32.0°F 32.0°F 100% 30.00 in 10.0 miles Calm Calm - N/A   Partly Cloudy
3:15 AM 33.8°F 32.0°F 93% 30.00 in 10.0 miles Calm Calm - N/A   Clear
3:35 AM 32.0°F 32.0°F 100% 30.00 in 10.0 miles Calm Calm - N/A   Clear
3:55 AM 35.6°F 35.6°F 100% 30.00 in 10.0 miles Calm Calm - N/A   Scattered Clouds
4:15 AM 35.6°F 35.6°F 100% 30.00 in 10.0 miles North - - N/A   Partly Cloudy
4:35 AM 37.4°F 35.6°F 93% 30.00 in 10.0 miles Calm Calm - N/A   Partly Cloudy
5:15 AM 39.2°F 37.4°F 93% 30.00 in 10.0 miles South 3.5 mph - N/A   Overcast
5:35 AM 39.2°F 37.4°F 93% 30.00 in 10.0 miles South 5.8 mph - N/A   Overcast
5:55 AM 39.2°F 39.2°F 100% 30.00 in 10.0 miles South 4.6 mph - N/A   Overcast
6:15 AM 39.2°F 39.2°F 100% 30.00 in 10.0 miles South 3.5 mph - N/A   Overcast
6:35 AM 39.2°F 39.2°F 100% 29.99 in 10.0 miles South 5.8 mph - N/A   Overcast
6:55 AM 41.0°F 39.2°F 93% 29.99 in 10.0 miles South 5.8 mph - N/A   Overcast
7:15 AM 41.0°F 39.2°F 93% 29.99 in 10.0 miles SSE 4.6 mph - N/A   Overcast
7:35 AM 41.0°F 39.2°F 93% 29.98 in 10.0 miles South 4.6 mph - N/A   Overcast
7:55 AM 41.0°F 37.4°F 87% 29.98 in 10.0 miles South 6.9 mph - N/A   Overcast
8:15 AM 41.0°F 37.4°F 87% 29.98 in 10.0 miles South 9.2 mph - N/A   Overcast
8:35 AM 41.0°F 37.4°F 87% 29.99 in 6.0 miles South 8.1 mph - N/A Rain Light Rain
8:55 AM 41.0°F 39.2°F 93% 29.99 in 1.8 miles South 3.5 mph - 0.02 in Rain Rain
9:15 AM 41.0°F 39.2°F 93% 29.99 in 3.0 miles South 5.8 mph - N/A Rain Light Rain
9:35 AM 41.0°F 39.2°F 93% 30.00 in 6.0 miles South 4.6 mph - N/A   Mostly Cloudy
9:55 AM 41.0°F 39.2°F 93% 30.00 in 10.0 miles South 4.6 mph - N/A   Mostly Cloudy
10:15 AM 41.0°F 39.2°F 93% 30.00 in 10.0 miles South 4.6 mph - N/A   Overcast
10:35 AM 41.0°F 39.2°F 93% 30.00 in 10.0 miles South 3.5 mph - N/A   Overcast
10:55 AM 41.0°F 39.2°F 93% 30.00 in 10.0 miles South 6.9 mph - N/A   Overcast
11:15 AM 41.0°F 39.2°F 93% 30.00 in 10.0 miles South 8.1 mph - N/A   Mostly Cloudy
11:35 AM 41.0°F 39.2°F 93% 29.99 in 8.0 miles South 6.9 mph - N/A   Mostly Cloudy
11:55 AM 42.8°F 39.2°F 87% 29.99 in 10.0 miles South 6.9 mph - N/A   Partly Cloudy
12:15 PM 44.6°F 39.2°F 81% 29.98 in 9.0 miles South 4.6 mph - N/A Rain Light Rain
12:55 PM 42.8°F 37.4°F 81% 29.98 in 10.0 miles South 8.1 mph - N/A   Mostly Cloudy
1:15 PM 42.8°F 39.2°F 87% 29.97 in 10.0 miles South 4.6 mph - N/A   Mostly Cloudy
1:35 PM 42.8°F 39.2°F 87% 29.97 in 5.0 miles South 5.8 mph - N/A Rain Light Rain
1:55 PM 41.0°F 39.2°F 93% 29.97 in 6.0 miles South 4.6 mph - N/A Rain Light Rain
2:15 PM 42.8°F 39.2°F 87% 29.97 in 9.0 miles South 6.9 mph - N/A Rain Light Rain
2:35 PM 42.8°F 39.2°F 87% 29.97 in 9.0 miles South 4.6 mph - N/A   Clear
2:55 PM 42.8°F 39.2°F 87% 29.97 in 6.0 miles South 5.8 mph - N/A Rain Light Rain
3:15 PM 42.8°F 39.2°F 87% 29.97 in 5.0 miles South 4.6 mph - N/A Rain Light Rain
3:35 PM 42.8°F 39.2°F 87% 29.97 in 9.0 miles South 3.5 mph - N/A   Clear
4:15 PM 42.8°F 39.2°F 87% 29.97 in 10.0 miles South 4.6 mph - N/A   Overcast
4:35 PM 42.8°F 39.2°F 87% 29.97 in 10.0 miles Calm Calm - N/A   Overcast
4:55 PM 42.8°F 39.2°F 87% 29.97 in 10.0 miles South 3.5 mph - N/A   Overcast
5:15 PM 42.8°F 37.4°F 81% 29.97 in 10.0 miles Calm Calm - N/A   Scattered Clouds
5:35 PM 42.8°F 37.4°F 81% 29.98 in 10.0 miles SSW 6.9 mph - N/A   Partly Cloudy
5:55 PM 41.0°F 37.4°F 87% 29.98 in 10.0 miles Calm Calm - N/A   Clear
6:15 PM 39.2°F 37.4°F 93% 29.98 in 10.0 miles Calm Calm - N/A   Clear
6:35 PM 39.2°F 37.4°F 93% 29.98 in 10.0 miles Calm Calm - N/A   Clear
6:55 PM 39.2°F 37.4°F 93% 29.98 in 10.0 miles Calm Calm - N/A   Clear
7:15 PM 37.4°F 37.4°F 100% 29.99 in 10.0 miles North - - N/A   Clear
7:35 PM 39.2°F 37.4°F 93% 29.99 in 10.0 miles Calm Calm - N/A   Clear
7:55 PM 39.2°F 37.4°F 93% 29.99 in 10.0 miles Calm Calm - N/A   Clear
8:15 PM 39.2°F 37.4°F 93% 30.00 in 10.0 miles Calm Calm - N/A   Mostly Cloudy
8:35 PM 41.0°F 37.4°F 87% 30.00 in 10.0 miles South 4.6 mph - N/A   Overcast
8:55 PM 41.0°F 37.4°F 87% 30.00 in 10.0 miles Calm Calm - N/A   Mostly Cloudy
9:15 PM 41.0°F 37.4°F 87% 30.00 in 10.0 miles North - - N/A   Scattered Clouds
9:35 PM 41.0°F 37.4°F 87% 30.00 in 10.0 miles South 5.8 mph - N/A   Scattered Clouds
9:55 PM 41.0°F 37.4°F 87% 30.01 in 10.0 miles South 6.9 mph - N/A   Scattered Clouds
10:15 PM 41.0°F 37.4°F 87% 30.00 in 10.0 miles SSE 3.5 mph - N/A   Mostly Cloudy
10:35 PM 41.0°F 35.6°F 81% 30.00 in 10.0 miles North - - N/A   Scattered Clouds
10:55 PM 41.0°F 35.6°F 81% 30.00 in 10.0 miles ESE 4.6 mph - N/A   Clear
11:15 PM 41.0°F 35.6°F 81% 29.99 in 10.0 miles Calm Calm - N/A   Partly Cloudy
11:35 PM 41.0°F 35.6°F 81% 29.99 in 10.0 miles South 6.9 mph - N/A   Scattered Clouds
11:55 PM 41.0°F 35.6°F 81% 29.98 in 10.0 miles South 3.5 mph - N/A   Mostly Cloudy
Moon Phase
Feb. 20 Feb. 25 Mar. 04 Mar. 11 Mar. 19
Sunrise:07:09 AM (PST) Moon Rise:12:52 PM (PST)2/20
Sunset:05:41 PM (PST) Moon Set:03:49 AM (PST)2/20

Copyright © 2014 The Weather Underground, Inc.